Location: Aulus
(42.7909°N, 1.3399°E)
Time: 23:57:55
(UTC+00:00)

Meteor PRIRODA - Pass Details

Date: 19 May 2025
Orbit: 358 x 367 km, 97.5° (Epoch: 18 June)

Event Time Altitude Azimuth Distance (km) Brightness Sun altitude
Exits shadow 20:04:51 - 159° (SSE) 1,476 5.5 -8.5°
Reaches altitude 10° 20:05:04 10° 159° (SSE) 1,385 5.4 -8.5°
Maximum altitude 20:07:59 67° 76° (ENE) 417 3.1 -9.0°
Drops below altitude 10° 20:10:58 10° 353° (N) 1,407 6.6 -9.4°
Sets 20:12:57 0° 351° (N) 2,268 7.8 -9.7°
